This demonstration page uses our WeatherBlox Daily Observations layout. Learn more.

39.92423, -83.80882

Hourly Observations for June 20, 2016

Temp ( °F °C ) Dew Point ( °F °C ) Humidity (%) Winds ( mph kmh ) Pressure ( in mb ) Visibility ( mi km ) Precip ( " mm )
12:56 am 00:56 Clear 75 23.8 67 19.4 76 76 S 8 13 30.21 1023 10 16.0934 0 0
1:56 am 01:56 Clear 74 23.3 67 19.4 79 79 S 7 11 30.21 1023 10 16.0934 0 0
2:56 am 02:56 Clear 73 22.7 67 19.4 82 82 S 6 9 30.21 1023 10 16.0934 0 0
3:56 am 03:56 Clear 71 21.6 68 20 91 91 SSW 7 11 30.22 1023 10 16.0934 0 0
4:56 am 04:56 Partly Cloudy 72 22.2 69 20.5 90 90 SSW 7 11 30.21 1023 10 16.0934 0 0
5:56 am 05:56 Mostly Cloudy 72 22.2 69 20.5 90 90 SSW 7 11 30.22 1023 10 16.0934 0 0
6:56 am 06:56 Mostly Cloudy 73 22.7 69 20.5 87 87 SSW 8 13 30.22 1023 10 16.0934 0 0
7:56 am 07:56 Mostly Cloudy 74 23.3 69 20.5 84 84 SSW 8 13 30.22 1024 10 16.0934 0 0
8:56 am 08:56 Mostly Cloudy 75 23.8 70 21.1 85 85 SSW 9 15 30.22 1024 10 16.0934 0 0
9:56 am 09:56 Sunny 81 27.2 71 21.6 72 72 WSW 12 19 30.21 1023 10 16.0934 0 0
10:56 am 10:56 Sunny 83 28.3 71 21.6 67 67 WSW 14 22 30.19 1022 10 16.0934 0 0
11:56 am 11:56 Partly Cloudy 86 30 71 21.6 61 61 WSW 16 26 30.17 1022 10 16.0934 0 0
12:56 pm 12:56 Mostly Sunny 87 30.5 71 21.6 59 59 SW 15 24 30.15 1021 10 16.0934 0 0
1:56 pm 13:56 Partly Cloudy 88 31.1 70 21.1 55 55 SW 16 26 30.13 1020 10 16.0934 0 0
2:56 pm 14:56 Mostly Sunny 90 32.2 69 20.5 50 50 WSW 16 26 30.12 1020 10 16.0934 0 0
3:56 pm 15:56 Sunny 92 33.3 70 21.1 49 49 SW 17 28 30.09 1019 10 16.0934 0 0
4:56 pm 16:56 Mostly Sunny 90 32.2 69 20.5 50 50 WSW 13 20 30.08 1019 10 16.0934 0 0
5:56 pm 17:56 Sunny 87 30.5 68 20 53 53 SW 13 20 30.05 1018 10 16.0934 0 0
6:56 pm 18:56 Sunny 85 29.4 68 20 57 57 SW 10 17 30.05 1018 10 16.0934 0 0
7:56 pm 19:56 Sunny 83 28.3 69 20.5 63 63 SW 12 19 30.04 1017 10 16.0934 0 0
8:56 pm 20:56 Mostly Sunny 80 26.6 71 21.6 74 74 SSW 18 30 29.98 1015 10 16.0934 0 0.0254
9:56 pm 21:56 Clear 78 25.5 72 22.2 82 82 SSW 24 39 29.97 1015 10 16.0934 0 0.0254
10:56 pm 22:56 Clear 78 25.5 69 20.5 74 74 WSW 13 20 30 1016 10 16.0934 0 0
11:56 pm 23:56 Clear 78 25.5 70 21.1 77 77 WSW 14 22 30 1016 10 16.0934 0 0

Powered by AerisWeather